Regional Weather Roundup
Issued by NWS

Home | Current Version | Previous Version | Text Only | Print | Product List | Glossary On
Versions: 1 2 3 4 5 6 7 8 9 10 11 12 13 14 15 16 17 18 19 20 21 22 23 24 25 26 27 28 29 30 31 32 33 34 35 36 37 38 39 40 41 42 43 44 45 46 47 48 49 50
341
ASUS43 KDTX 102310
RWRMI
MICHIGAN HOURLY REGIONAL WEATHER ROUNDUP
NATIONAL WEATHER SERVICE DETROIT/PONTIAC MI
600 PM EST WED FEB 10 2016

NOTE: "FAIR" INDICATES FEW OR NO CLOUDS BELOW 12,000 FEET WITH NO
SIGNIFICANT WEATHER AND/OR OBSTRUCTION TO VISIBILITY.

MIZ047>049-052>055-059>063-066>070-074>076-081>083-110000-
SOUTHEAST LOWER MICHIGAN

CITY           SKY/WX    TMP DP  RH WIND       PRES   REMARKS
ADRIAN         FLURRIES  19  10  68 NW15      29.93R WCI   5
ALMA           MOCLDY    15   6  67 NW10      29.93R WCI   3
ANN ARBOR      CLOUDY    19   6  57 NW12      29.90R WCI   7
BAD AXE        CLOUDY    14   7  71 NW10G16   29.87R WCI   2
CARO           MOCLDY    14   0  52 W12       29.88R WCI   0
DETROIT CITY   CLOUDY    20   4  50 NW9G17    29.89R WCI   9
DETROIT        CLOUDY    20   5  52 W15       29.91R WCI   6
FLINT          CLOUDY    18   7  62 NW10      29.90R HAZE    WCI   6
GROSSE ILE     CLOUDY    21   7  53 NW10      29.89R WCI  10
HILLSDALE      CLOUDY    17   7  64 W15       29.90R WCI   2
HOWELL         CLOUDY    18   5  58 NW16G22   29.89R WCI   3

CITY           SKY/WX    TMP DP  RH WIND       PRES   REMARKS
JACKSON        CLOUDY    17   6  62 W12       29.91R WCI   4
LAMBERTVILLE   CLOUDY    20  13  74 W9        29.93R WCI   9
LANSING        CLOUDY    17   2  51 NW15      29.93R WCI   2
LAPEER         CLOUDY    15   8  72 NW6       29.88R WCI   6
MASON          CLOUDY    17   6  62 NW12      29.91R WCI   4
MONROE         CLOUDY    21   6  52 NW10G18   29.91R WCI  10
MT. CLEMENS    SNOW      18  12  79 NW13      29.87R VSB 1/2 WCI   4
PONTIAC        LGT SNOW  15  11  83 NW10      29.87R WCI   2
PORT HOPE        N/A     16   6  65 NW17G30   29.85R WCI   0
PORT HURON     CLOUDY    16   7  67 NW7       29.89R WCI   6
TRI CITIES     PTCLDY    15  -1  49 NW17      29.92R WCI  -1
MIDLAND        FAIR      15  -1  50 NW10G18   29.92R WCI   2
TROY           CLOUDY    19  12  76 NW12      29.90R WCI   6
SAGINAW HB     PTCLDY    16   5  62 NW16G24   29.91R WCI   0
$$
MIZ043>046-050>051-056>058-064>065-071>073-077>080-110000-
SOUTHWEST LOWER MICHIGAN

CITY           SKY/WX    TMP DP  RH WIND       PRES   REMARKS
BATTLE CREEK   MOCLDY    17   5  59 NW14      29.94R WCI   3
BENTON HARBOR  CLOUDY    18   8  65 W9        30.02R WCI   7
BIG RAPIDS     MOCLDY    14   4  63 N13       29.92R WCI   0
COLDWATER      FLURRIES  18  12  78 NW9       29.94R WCI   7
FREMONT        FAIR      15   4  62 NW13      29.97R WCI   1
HOLLAND        SNOW      16  11  80 N6        30.00R VSB 1/2 WCI   7
GRAND RAPIDS   MOCLDY    17   4  56 NW17      29.96R WCI   1
IONIA          MOCLDY    16   2  52 NW16      29.93R WCI   1
KALAMAZOO      LGT SNOW  16  10  77 N20       29.96R WCI  -1
LUDINGTON      LGT SNOW  16   6  63 NW13      29.99R WCI   3
MARSHALL       CLOUDY    17   9  69 NW6       29.93R WCI   9
MOUNT PLEASANT PTCLDY    16   0  50 NW6       29.92R WCI   7
MUSKEGON       CLOUDY    16   5  62 NW10      30.01R WCI   4
SOUTH HAVEN    LGT SNOW  19  11  73 NW10G23   30.00R WCI   7
$$
MIZ016>042-110000-
NORTHERN LOWER MICHIGAN

CITY           SKY/WX    TMP DP  RH WIND       PRES   REMARKS
ALPENA         LGT SNOW  10   2  69 NW9       29.88R WCI  -3
BEAVER ISLAND  MOCLDY    12   1  60 NW12G22   29.97R WCI  -2
BELLAIRE       CLOUDY    14   1  57 N7G20     29.95R WCI   4
CADILLAC       LGT SNOW  12   6  75 NW10      29.88R WCI  -1
CHARLEVOIX     LGT SNOW  13   3  65 NW20G28   29.98R VSB 1   WCI  -5
FRANKFORT      LGT SNOW  15  11  81 N8G18     29.98R VSB 3/4 WCI   5
GAYLORD        CLOUDY     9  -1  64 NW8G17    29.86R WCI  -3
GRAYLING       LGT SNOW  10   6  81 NW9       29.89R WCI  -2
HARBOR SPRINGS CLOUDY    11   0  61 NW8       29.94R WCI  -1
HOUGHTON LAKE  MOCLDY    11   0  61 NW12      29.88R WCI  -3
MANISTEE       CLOUDY    18   3  53 NW15G23   29.98R WCI   3
OSCODA         CLOUDY    11   0  61 NW15G21   29.89R WCI  -5
PELLSTON       CLOUDY    10  -1  61 N12G24    29.94R WCI  -5
ROGERS CITY    LGT SNOW  11   3  72 NW10G23   29.90R WCI  -3
TRAVERSE CITY  LGT SNOW  15   6  67 N16G25    29.95R WCI  -1
$$
MIZ007>008-015-110000-
EASTERN UPPER MICHIGAN

CITY           SKY/WX    TMP DP  RH WIND       PRES   REMARKS
KINROSS        CLOUDY     9   3  78 N12       29.90R WCI  -6
MACKINAC ISLAN CLOUDY     9   1  69 NW13G21   29.92R WCI  -6
NEWBERRY       CLOUDY     8   4  85 N5        29.94R WCI  -1
S. S. MARIE    CLEAR      7  -5  57 NW8       29.91R WCI  -6
MUNISING         N/A     13   4  67 N16       30.00R WCI  -3
$$
MIZ004>006-011>014-085-110000-
CENTRAL UPPER MICHIGAN

CITY           SKY/WX    TMP DP  RH WIND       PRES   REMARKS
MANISTIQUE     CLOUDY    10   4  75 NW8       29.98R HAZE    WCI  -1
ESCANABA       PTCLDY    12  -4  48 NW12      30.03R WCI  -2
MENOMINEE      CLEAR     10  -6  48 N9        30.05R WCI  -2
SAWYER-GWINN   MOCLDY     7   0  72 NW13      29.98R WCI  -9
$$
MIZ001>003-009>011-084-110000-
WESTERN UPPER MICHIGAN

CITY           SKY/WX    TMP DP  RH WIND       PRES   REMARKS
IRON MOUNTAIN  CLOUDY     7  -5  57 N13       30.02R WCI  -9
HOUGHTON       FLURRIES   7  -1  70 NW14      30.04R WCI -10
COPPER HARBOR    N/A     11   4  73 N22G30    30.05S WCI  -8
IRONWOOD       CLOUDY     9   1  72 NW7       30.06R WCI  -3
$$

ABBREVIATIONS USED IN REMARKS
   TC - TEMPERATURE IN CELSIUS
  WCI - WIND CHILL INDEX
   HX - HEAT INDEX
  VSB - VISIBILITY





USA.gov is the U.S. government's official web portal to all federal, state and local government web resources and services.